Date String (YYYY-MM-DD hh:mm:ss) UTC,Instrument flags,Ambient pressure (hPa),Sample flow (lpm),Bypass flow (lpm),Sample temperature (°C),Ambient temperature (°C),ASC tube jacket temperature (°C),LED temperature (°C),Box temperature (°C),Sample RH (%),Span deviation,Mass concentration (μg/m³),Mass concentration (μg/m³),Mass concentration (μg/m³)
DateTimeUTC,F1_M11,P_M11,Q1_M11,Q2_M11,T1_M11,T2_M11,T3_M11,T4_M11,T5_M11,U1_M11,ZSPAN_M11,X0_M11,X2_M11,X1_M11
2022-04-01 21:00:00,,0820.7,5.00,0.00,26.0,25.4,00.0,34.9,27.9,11.3,0000.0,0014.63,0005.04,0004.34
2022-04-01 21:01:00,,0820.8,5.01,0.00,26.0,25.4,00.0,34.9,27.9,11.2,0000.0,0015.15,0005.13,0004.36
2022-04-01 21:02:00,,0820.8,4.99,0.00,26.0,25.4,00.0,34.9,27.9,10.7,0000.0,0015.53,0005.16,0004.38
2022-04-01 21:03:00,,0820.8,5.00,0.00,26.0,25.4,00.0,34.9,27.9,10.4,0000.0,0016.41,0005.22,0004.40
2022-04-01 21:04:00,,0820.8,5.00,0.00,26.0,25.4,00.0,34.9,27.9,10.5,0000.0,0016.16,0005.20,0004.41
2022-04-01 21:05:00,,0820.7,5.00,0.00,26.0,25.4,00.0,34.9,27.8,10.7,0000.0,0016.16,0005.20,0004.41
2022-04-01 21:06:00,,0820.8,4.99,0.00,26.0,25.4,00.0,34.9,27.9,10.7,0000.0,0015.98,0005.17,0004.41
2022-04-01 21:07:00,,0820.7,5.00,0.00,26.1,25.4,00.0,35.0,27.9,10.4,0000.0,0016.00,0005.15,0004.40
2022-04-01 21:08:00,,0820.8,5.00,0.00,26.1,25.5,00.0,35.0,27.9,10.4,0000.0,0015.93,0005.15,0004.40
2022-04-01 21:09:00,,0820.7,5.00,0.00,26.1,25.4,00.0,35.0,27.9,10.4,0000.0,0015.18,0005.18,0004.41
2022-04-01 21:10:00,,0820.8,5.00,0.00,26.1,25.3,00.0,35.0,27.9,10.1,0000.0,0015.35,0005.20,0004.41
2022-04-01 21:11:00,,0820.8,5.00,0.00,26.1,25.4,00.0,35.0,27.9,10.1,0000.0,0015.65,0005.21,0004.43
2022-04-01 21:12:00,,0820.7,5.01,0.00,26.1,25.4,00.0,35.0,27.9,10.1,0000.0,0015.46,0005.18,0004.44
2022-04-01 21:13:00,,0820.7,5.00,0.00,26.1,25.4,00.0,35.0,27.9,10.7,0000.0,0014.22,0005.15,0004.44
2022-04-01 21:14:00,,0820.7,5.00,0.00,26.1,25.5,00.0,35.0,27.9,10.7,0000.0,0012.75,0005.09,0004.41
2022-04-01 21:15:00,,0820.7,5.00,0.00,26.1,25.5,00.0,35.0,27.9,10.5,0000.0,0011.64,0005.08,0004.41
2022-04-01 21:16:00,,0820.7,5.00,0.00,26.1,25.5,00.0,35.0,28.0,10.3,0000.0,0011.55,0005.11,0004.40
2022-04-01 21:17:00,,0820.7,5.00,0.00,26.1,25.5,00.0,35.0,28.0,10.3,0000.0,0012.46,0005.15,0004.40
2022-04-01 21:18:00,,0820.7,5.00,0.00,26.1,25.5,00.0,35.0,28.0,10.7,0000.0,0011.92,0005.14,0004.40
2022-04-01 21:19:00,,0820.7,4.99,0.00,26.1,25.5,00.0,35.0,28.0,10.9,0000.0,0011.92,0005.13,0004.40
2022-04-01 21:20:00,,0820.7,5.00,0.00,26.1,25.5,00.0,35.1,28.0,10.7,0000.0,0012.15,0005.16,0004.42
2022-04-01 21:21:00,,0820.7,5.00,0.00,26.1,25.5,00.0,35.1,28.0,10.5,0000.0,0012.30,0005.19,0004.43
2022-04-01 21:22:00,,0820.7,5.01,0.00,26.1,25.5,00.0,35.1,28.0,09.9,0000.0,0011.78,0005.21,0004.44
2022-04-01 21:23:00,,0820.7,5.00,0.00,26.2,25.5,00.0,35.1,28.0,09.8,0000.0,0011.59,0005.20,0004.45
2022-04-01 21:24:00,,0820.7,5.00,0.00,26.2,25.5,00.0,35.1,28.0,10.3,0000.0,0011.74,0005.24,0004.46
2022-04-01 21:25:00,,0820.7,5.00,0.00,26.2,25.5,00.0,35.1,28.0,10.4,0000.0,0011.84,0005.28,0004.48
2022-04-01 21:26:00,,0820.8,4.99,0.00,26.2,25.5,00.0,35.1,28.0,10.1,0000.0,0011.64,0005.27,0004.48
2022-04-01 21:27:00,,0820.8,5.00,0.00,26.2,25.6,00.0,35.1,28.0,09.9,0000.0,0011.44,0005.28,0004.51
2022-04-01 21:28:00,,0820.9,5.00,0.00,26.2,25.5,00.0,35.1,28.0,10.1,0000.0,0010.87,0005.29,0004.53
2022-04-01 21:29:00,,0820.7,5.00,0.00,26.2,25.5,00.0,35.1,28.0,10.7,0000.0,0011.15,0005.34,0004.55
2022-04-01 21:30:00,,0820.8,5.00,0.00,26.2,25.5,00.0,35.1,28.0,11.0,0000.0,0010.99,0005.36,0004.56
2022-04-01 21:31:00,,0820.9,5.00,0.00,26.2,25.6,00.0,35.1,28.0,11.3,0000.0,0010.71,0005.35,0004.58
2022-04-01 21:32:00,,0820.9,5.00,0.00,26.2,25.5,00.0,35.1,28.0,11.3,0000.0,0010.39,0005.31,0004.58
2022-04-01 21:33:00,,0820.8,5.00,0.00,26.2,25.5,00.0,35.1,28.0,11.2,0000.0,0010.50,0005.29,0004.59
2022-04-01 21:34:00,,0820.8,5.01,0.00,26.2,25.5,00.0,35.1,28.0,10.9,0000.0,0010.54,0005.35,0004.60
2022-04-01 21:35:00,,0820.8,4.99,0.00,26.2,25.5,00.0,35.1,28.0,10.9,0000.0,0010.79,0005.37,0004.62
2022-04-01 21:36:00,,0820.8,5.01,0.00,26.2,25.5,00.0,35.1,28.0,10.8,0000.0,0011.43,0005.40,0004.64
2022-04-01 21:37:00,,0820.9,5.00,0.00,26.2,25.6,00.0,35.1,28.0,10.9,0000.0,0012.68,0005.45,0004.66
2022-04-01 21:38:00,,0820.8,5.00,0.00,26.2,25.6,00.0,35.1,28.0,10.4,0000.0,0012.84,0005.44,0004.66
2022-04-01 21:39:00,,0820.8,5.00,0.00,26.2,25.5,00.0,35.2,28.0,10.3,0000.0,0012.58,0005.47,0004.66
2022-04-01 21:40:00,,0820.8,5.00,0.00,26.2,25.5,00.0,35.2,28.1,10.5,0000.0,0012.56,0005.48,0004.67
2022-04-01 21:41:00,,0820.8,5.00,0.00,26.2,25.6,00.0,35.2,28.1,10.5,0000.0,0013.22,0005.50,0004.67
2022-04-01 21:42:00,,0820.8,5.00,0.00,26.3,25.6,00.0,35.2,28.1,10.9,0000.0,0013.75,0005.47,0004.66
2022-04-01 21:43:00,,0820.8,5.00,0.00,26.3,25.6,00.0,35.2,28.1,10.6,0000.0,0013.53,0005.47,0004.64
2022-04-01 21:44:00,,0820.9,5.00,0.00,26.3,25.6,00.0,35.2,28.1,10.7,0000.0,0012.92,0005.43,0004.62
2022-04-01 21:45:00,,0820.9,4.99,0.00,26.3,25.7,00.0,35.2,28.1,10.7,0000.0,0012.79,0005.35,0004.60
2022-04-01 21:46:00,,0821.0,5.00,0.00,26.3,25.6,00.0,35.2,28.1,11.7,0000.0,0013.34,0005.32,0004.59
2022-04-01 21:47:00,,0821.0,4.99,0.00,26.3,25.6,00.0,35.2,28.1,11.0,0000.0,0013.68,0005.29,0004.58
2022-04-01 21:48:00,,0821.0,5.00,0.00,26.3,25.6,00.0,35.2,28.1,10.9,0000.0,0012.98,0005.30,0004.58
2022-04-01 21:49:00,,0821.0,5.01,0.00,26.3,25.6,00.0,35.2,28.1,11.1,0000.0,0013.52,0005.35,0004.59
2022-04-01 21:50:00,,0821.0,4.99,0.00,26.3,25.6,00.0,35.2,28.1,11.3,0000.0,0014.19,0005.33,0004.58
2022-04-01 21:51:00,,0821.0,5.00,0.00,26.3,25.6,00.0,35.2,28.1,10.9,0000.0,0014.35,0005.33,0004.59
2022-04-01 21:52:00,,0821.0,5.00,0.00,26.3,25.6,00.0,35.2,28.1,11.1,0000.0,0013.57,0005.34,0004.60
2022-04-01 21:53:00,,0821.0,5.00,0.00,26.3,25.6,00.0,35.2,28.2,11.2,0000.0,0013.46,0005.36,0004.60
2022-04-01 21:54:00,,0821.0,5.00,0.00,26.3,25.7,00.0,35.2,28.2,10.8,0000.0,0013.46,0005.40,0004.62
2022-04-01 21:55:00,,0821.0,5.01,0.00,26.3,25.7,00.0,35.2,28.2,10.8,0000.0,0014.15,0005.43,0004.66
2022-04-01 21:56:00,,0821.0,5.00,0.00,26.3,25.7,00.0,35.2,28.2,10.8,0000.0,0015.47,0005.49,0004.70
2022-04-01 21:57:00,,0821.0,5.00,0.00,26.4,25.7,00.0,35.3,28.2,10.8,0000.0,0015.09,0005.51,0004.73
2022-04-01 21:58:00,,0821.0,5.00,0.00,26.4,25.8,00.0,35.3,28.2,11.0,0000.0,0014.16,0005.56,0004.74
2022-04-01 21:59:00,,0821.0,4.99,0.00,26.4,25.8,00.0,35.3,28.2,11.0,0000.0,0014.28,0005.56,0004.74
